Temperature
26 24 24 24 28 31 33 34 35 34 34 34 34 34 32 31 30 28 28 26 25 25 24 23 22 22 21 21 21 21 20 20 21 21 21 21 21 21 21 20 20 20 20 20 20 20 20 20 20
26 24 26 28 30 31 33 34 34 34 34 34 34 34 32 30 29 28 27 25 24 25 24 23 23 22 21 21 21 21 21 20 21 21 21 21 21 21 21 20 20 20 20 20 20 20 20 20 20
26 26 28 31 31 32 33 34 35 35 34 34 33 32 31 30 29 27 26 25 24 24 24 24 23 22 21 21 21 20 20 20 20 21 21 21 21 21 20 20 20 20 20 20 20 20 20 20 20
26 29 30 32 31 33 34 35 35 35 35 34 33 32 30 29 28 27 26 25 24 23 24 24 23 22 22 21 21 20 20 20 20 20 20 20 20 20 20 20 20 20 20 20 20 20 20 20 20
28 30 33 33 32 34 35 35 35 35 35 34 33 31 29 29 28 27 26 25 24 23 24 24 23 23 22 21 21 21 20 20 20 20 20 20 20 20 20 20 20 20 20 19 19 19 20 20 20
30 33 33 33 32 34 36 35 35 34 35 34 32 31 29 28 27 27 27 26 25 23 23 24 23 23 22 22 21 21 21 21 20 20 20 20 20 20 20 20 20 19 19 19 19 19 19 19 19
31 33 33 34 32 33 35 35 34 34 34 35 33 31 29 28 27 27 27 27 26 24 24 24 24 23 23 22 22 21 21 21 21 21 20 20 20 20 20 20 20 20 19 19 19 19 19 19 19
32 33 33 34 33 33 35 36 35 34 33 34 34 32 30 29 28 28 27 27 27 25 24 24 24 23 23 22 22 22 21 21 21 21 21 20 20 20 20 20 20 19 19 19 19 19 19 19 19
32 32 33 35 34 34 36 36 35 34 33 33 33 32 30 29 28 28 27 27 27 25 24 23 23 23 23 22 22 22 21 21 21 21 21 20 20 20 19 19 19 19 19 19 19 19 19 19 19
33 32 34 35 35 35 35 35 35 34 32 32 30 29 29 29 28 28 28 27 27 26 24 24 22 22 22 21 21 21 21 21 21 20 20 20 20 19 19 19 19 19 19 19 19 19 19 19 19
34 33 35 35 35 35 35 36 35 34 31 29 27 26 27 28 28 28 28 27 26 25 25 24 23 22 22 21 21 21 20 20 20 20 19 19 19 19 19 19 19 19 19 19 19 19 19 19 19
34 34 34 34 34 34 35 35 36 35 32 30 29 27 26 27 28 28 28 27 25 25 25 25 23 23 22 22 21 21 21 21 20 20 20 19 19 19 19 19 19 19 19 19 19 19 19 19 18
33 34 34 34 34 34 34 34 35 34 32 30 28 26 26 27 28 28 28 27 25 25 25 25 23 22 22 22 21 21 21 21 21 20 20 20 19 19 19 19 19 19 19 19 19 19 19 19 19
33 33 34 34 34 34 34 34 34 34 32 30 28 28 27 28 29 28 28 27 25 25 24 24 23 22 22 22 22 21 21 21 21 20 20 20 19 19 19 19 19 19 19 19 19 19 19 19 19
32 32 32 33 34 34 34 34 34 34 33 32 30 29 29 29 29 28 27 26 26 25 24 24 23 22 22 21 21 21 21 21 21 20 20 20 19 19 19 18 18 18 18 18 18 18 18 18 18
32 32 31 33 35 35 34 32 35 35 34 32 31 31 30 30 29 29 28 27 26 25 24 23 23 22 21 21 21 20 21 21 21 21 20 20 19 19 19 18 18 18 18 18 18 18 18 18 18
31 31 32 33 35 35 34 33 34 34 33 32 31 31 31 30 29 29 28 26 26 25 24 23 23 22 21 20 21 20 21 21 21 21 20 20 19 19 18 18 17 17 17 17 17 18 17 17 17
31 32 33 33 34 34 33 33 34 34 33 33 32 32 31 29 28 28 27 26 25 24 23 22 22 21 20 20 20 21 20 20 21 20 20 20 19 19 18 18 17 17 17 17 17 17 17 17 17
32 32 32 33 34 32 32 32 33 33 32 32 32 30 29 27 26 25 24 24 23 22 22 21 21 21 20 20 20 20 21 20 20 20 20 20 19 19 18 18 17 17 16 16 16 16 16 16 16
31 31 31 32 33 32 31 31 32 33 33 31 30 28 25 24 23 22 22 21 21 21 20 20 20 20 20 20 20 21 21 20 20 20 20 19 19 19 18 17 18 17 17 17 16 16 16 16 16
31 30 30 30 31 31 31 30 31 32 31 30 27 25 24 23 21 21 20 20 19 20 20 19 19 19 19 20 20 20 20 20 20 20 19 19 19 18 18 18 18 17 17 16 16 16 15 15 16
29 30 30 30 29 29 30 29 30 30 29 28 25 23 21 20 19 19 18 18 18 18 19 19 19 19 19 19 19 19 19 19 20 20 19 19 18 18 17 17 17 17 17 16 16 16 16 15 15
30 31 30 30 29 29 29 29 29 29 27 25 24 22 21 19 18 17 17 17 18 18 18 18 18 18 18 18 18 18 18 19 19 19 19 18 18 18 17 17 17 17 17 16 16 16 16 15 14
31 30 30 29 27 25 24 23 26 28 26 24 23 22 21 19 18 17 17 17 17 17 17 17 17 17 17 17 17 17 17 18 18 18 18 18 18 17 17 17 17 17 16 16 16 16 16 15 15
30 28 27 26 23 21 20 21 24 26 27 26 24 22 21 19 18 17 16 16 16 16 16 16 16 16 16 16 16 16 16 16 16 17 17 17 17 17 17 17 16 16 16 16 16 16 15 15 14
29 29 27 26 26 25 23 23 24 25 25 24 23 22 21 20 19 18 17 16 16 15 15 15 15 15 15 15 15 15 15 15 15 15 15 16 16 16 16 16 16 16 15 15 15 15 15 14 14
29 29 29 28 28 27 27 25 23 22 21 22 22 22 21 20 20 19 18 17 16 15 14 14 14 14 14 14 14 14 14 15 15 15 15 15 15 15 15 15 15 15 15 15 15 14 14 14 14
30 29 28 27 25 25 27 25 21 20 20 20 21 21 21 20 19 19 18 17 16 15 14 14 13 13 13 13 13 13 13 13 14 14 14 14 14 14 15 15 15 15 15 15 14 14 14 14 14
29 29 28 27 27 25 24 23 23 20 20 21 21 20 19 19 18 17 17 16 15 15 14 14 13 12 12 12 12 12 12 12 12 12 12 13 13 14 14 14 14 14 14 14 14 14 14 14 14
28 28 28 26 25 26 25 21 22 21 21 20 20 19 19 18 17 17 16 15 15 14 13 13 12 12 12 11 11 11 11 11 11 11 11 12 12 12 13 13 14 14 14 14 14 14 14 14 14
Wind_Speed
9 12 10 6 6 6 7 12 14 13 12 11 9 10 19 16 13 14 16 23 25 22 21 20 18 17 16 16 17 16 16 15 14 13 12 11 11 11 10 10 10 9 9 9 8 8 7 7 7
10 12 8 6 6 1 9 12 12 10 8 8 9 12 19 17 17 17 18 22 24 21 20 19 19 18 17 16 16 16 15 14 13 12 12 11 10 10 9 9 8 8 8 7 7 7 7 7 6
10 12 6 6 3 2 7 10 8 10 9 9 13 16 14 13 16 15 18 22 22 20 19 21 20 18 17 16 15 15 14 13 13 12 11 10 9 9 8 8 7 7 7 7 6 6 6 6 6
8 6 6 6 2 1 6 6 6 10 9 9 14 12 12 11 13 18 19 22 21 19 19 21 20 18 16 15 14 14 13 12 12 11 10 9 9 8 8 7 7 6 6 6 6 6 6 6 6
9 7 11 5 2 2 4 4 6 9 8 14 19 16 13 12 18 20 19 21 19 19 19 21 20 18 16 15 14 13 12 12 11 10 10 9 8 8 8 8 8 8 8 8 8 8 8 9 9
6 9 12 3 4 6 3 5 7 7 7 13 19 17 12 15 17 18 18 18 19 21 19 20 20 18 16 15 14 13 12 11 11 10 10 9 9 9 9 9 10 10 10 10 10 10 10 11 12
11 14 17 9 5 7 2 5 9 4 4 6 16 16 13 16 17 17 17 17 19 21 20 17 18 17 16 16 15 14 13 12 12 11 11 10 11 11 12 12 12 12 12 12 12 13 13 13 13
11 12 19 12 7 7 5 3 8 6 4 2 8 11 16 18 18 17 15 15 17 21 20 17 17 17 16 15 16 15 14 14 13 12 12 12 13 14 15 16 16 16 16 15 15 15 15 15 16
14 13 16 12 3 3 2 3 4 6 8 6 1 12 21 22 20 17 15 14 14 17 19 18 18 16 16 16 18 17 15 15 14 13 15 13 13 15 16 21 21 21 20 19 18 17 17 17 17
11 13 16 9 6 0 2 5 1 2 5 2 10 13 15 19 18 18 16 15 13 13 16 16 18 16 14 13 15 14 14 15 15 13 15 14 13 12 13 13 23 24 23 21 20 19 18 17 15
14 17 17 12 8 7 6 7 6 7 3 6 11 7 2 11 15 16 16 15 12 10 12 15 15 13 11 7 11 8 9 11 14 14 12 12 10 9 10 6 12 17 18 16 15 16 15 14 13
15 15 15 12 11 10 11 12 10 7 6 16 18 12 11 13 16 16 16 16 14 11 10 13 14 11 7 5 6 6 5 6 6 9 10 7 4 4 4 3 3 5 7 7 7 3 11 13 13
12 14 16 15 12 12 13 13 14 8 6 16 21 22 21 21 18 18 16 16 15 11 10 10 12 11 7 3 1 4 3 3 4 5 5 3 2 3 3 3 3 5 5 3 3 4 5 6 6
14 16 15 14 14 14 15 15 16 13 8 12 17 19 22 21 18 15 14 14 17 14 12 11 12 12 9 6 3 2 2 3 2 2 3 3 2 1 3 4 4 4 5 5 4 6 6 6 5
14 16 18 19 19 18 15 16 17 17 10 7 10 14 16 15 13 13 16 15 17 15 13 11 12 13 11 9 8 6 5 4 3 3 4 4 2 0 1 4 5 4 5 5 5 6 6 7 8
15 17 20 21 21 17 12 15 16 11 7 4 6 10 12 10 12 13 15 13 14 15 13 12 12 14 12 7 6 4 3 4 2 2 3 4 3 2 2 4 4 3 3 4 5 6 6 6 6
17 19 21 21 19 13 11 13 14 5 4 5 7 10 8 9 9 7 11 11 10 10 10 10 6 11 10 7 4 2 2 2 1 1 3 5 3 3 2 3 4 4 4 5 6 4 3 5 6
12 14 16 17 8 5 9 13 12 4 6 7 6 6 4 5 4 3 4 5 5 9 9 8 8 10 10 7 4 2 2 3 2 2 5 5 2 2 3 4 4 5 5 5 4 6 6 5 6
13 13 13 8 3 0 8 13 14 8 7 7 4 2 2 3 2 4 6 5 6 8 8 7 8 9 6 4 3 3 3 1 1 2 6 4 1 2 2 4 5 5 4 5 6 6 7 7 6
11 11 11 10 7 7 10 15 16 13 8 4 3 4 8 7 8 9 9 9 8 11 9 7 7 5 4 4 1 1 2 1 0 2 4 4 3 0 3 2 4 5 5 6 6 5 5 7 6
9 9 9 10 10 11 14 17 17 12 6 3 7 10 12 11 9 8 9 10 9 8 6 5 5 3 2 3 1 1 1 1 2 2 3 3 2 2 2 2 4 4 5 5 5 6 7 6 6
9 8 10 12 13 14 16 14 7 3 3 7 9 12 14 14 15 14 14 13 11 9 8 4 4 2 2 1 3 3 3 4 3 3 2 4 3 5 4 4 4 4 4 6 6 4 5 6 7
10 11 12 15 16 17 16 13 3 6 8 8 10 12 14 15 15 14 14 12 11 11 9 8 5 4 3 3 4 4 6 6 5 3 1 2 4 6 7 6 5 4 5 6 5 6 6 5 7
10 12 14 13 10 11 13 13 4 5 9 10 9 11 13 14 14 13 13 12 12 12 11 11 11 10 10 8 6 5 6 8 9 8 6 4 5 5 7 7 5 4 5 5 5 6 7 7 7
9 11 10 9 3 4 7 8 4 6 7 10 12 12 12 13 13 12 11 11 10 11 11 12 12 11 11 10 9 8 8 7 7 7 7 7 6 5 4 3 3 4 5 6 6 6 7 7 8
9 10 10 14 13 6 11 8 4 9 10 11 11 11 10 10 10 10 9 9 9 9 9 9 9 9 9 9 8 7 8 7 6 7 8 7 6 7 6 4 3 5 6 7 6 6 7 7 7
7 9 13 14 16 14 4 6 8 11 8 6 7 8 8 7 7 7 7 7 7 7 6 7 6 6 7 7 8 6 6 6 7 8 7 6 7 8 8 7 6 6 7 7 7 7 7 7 7
6 8 8 8 10 13 14 4 3 6 5 3 3 6 7 7 8 9 8 7 6 6 5 5 5 5 6 6 6 7 7 7 7 7 7 7 8 8 9 9 9 8 8 8 8 8 7 6 6
8 9 8 8 10 12 15 5 5 5 3 2 4 6 7 8 9 10 10 9 9 8 8 7 6 6 6 6 6 6 6 7 7 7 7 7 7 8 8 9 10 10 9 9 8 8 8 7 6
11 9 8 7 9 11 12 3 7 6 4 5 6 6 8 9 10 11 12 11 10 10 9 8 8 8 8 8 7 7 7 8 8 9 8 9 9 9 9 9 10 11 11 9 9 9 7 6 6
Wind_Direction
248 241 234 254 254 243 68 66 60 60 60 63 45 48 62 59 74 96 115 114 116 125 133 135 135 136 137 138 139 140 140 140 139 139 138 136 132 129 126 125 124 123 123 124 123 119 115 113 112
274 261 248 251 268 340 76 71 69 66 65 79 72 72 79 77 93 107 112 117 122 129 139 141 140 140 141 142 143 143 144 143 143 144 145 144 142 140 139 136 135 135 134 134 135 134 133 132 133
267 261 262 248 279 58 83 83 89 93 81 86 77 62 75 97 107 113 122 125 126 132 138 139 146 145 146 146 147 147 148 147 148 150 151 152 152 153 152 151 151 152 151 152 153 153 152 153 156
271 254 233 254 296 55 97 96 100 95 91 98 97 85 83 96 116 124 133 126 126 134 138 144 149 148 149 150 151 152 152 153 155 156 159 162 164 168 170 171 174 177 178 179 180 181 179 180 183
264 259 258 257 267 252 122 103 80 82 86 93 96 99 99 107 117 130 135 129 137 139 137 147 151 152 153 155 157 158 159 161 164 166 170 175 180 187 191 194 198 201 204 206 207 207 206 204 204
275 269 278 274 249 261 150 121 84 88 103 115 114 112 111 123 129 142 141 145 145 138 138 146 152 156 159 162 165 167 168 171 175 179 184 191 198 205 211 214 216 218 220 222 224 224 223 221 219
272 292 292 278 207 260 202 139 118 163 142 124 121 120 135 145 146 150 150 153 146 138 136 150 157 161 165 169 173 175 178 181 186 192 199 205 213 219 224 226 226 227 227 228 230 232 233 232 230
277 289 289 281 198 230 210 190 146 153 120 139 138 132 150 147 155 149 155 156 147 138 143 155 160 164 170 176 181 183 186 189 195 202 209 215 223 229 232 232 229 230 229 228 231 233 234 235 236
269 270 276 298 301 230 240 242 143 155 162 193 69 130 146 151 154 151 162 161 151 145 147 162 161 166 176 180 181 185 191 197 201 210 217 221 231 235 230 229 227 225 226 227 228 232 235 236 238
252 265 275 322 346 331 251 274 237 208 193 160 50 85 133 152 154 162 167 162 154 149 157 165 161 166 183 185 165 183 192 195 204 212 206 211 229 248 257 230 219 220 222 225 227 230 235 237 242
256 265 283 309 314 313 292 269 235 227 198 103 84 50 173 167 164 171 170 163 154 164 173 160 151 160 184 164 160 186 192 178 197 216 205 203 225 247 262 248 212 217 221 225 230 229 233 235 235
257 272 288 292 303 311 297 295 288 265 151 134 131 149 226 214 184 182 174 163 158 178 187 162 148 157 183 165 171 172 183 169 191 190 205 197 207 259 285 297 296 219 219 215 232 213 221 228 239
271 271 274 276 275 277 280 282 285 281 152 138 144 166 199 215 197 186 175 163 160 179 186 159 146 148 156 155 247 188 173 167 169 155 181 171 195 243 290 307 311 299 293 272 243 260 261 251 250
276 284 282 281 278 271 267 267 266 259 209 161 159 179 203 214 202 186 166 166 163 176 183 162 152 148 153 159 186 278 244 165 197 136 137 147 190 218 273 282 275 272 281 291 285 279 275 270 263
263 271 273 266 258 253 255 260 260 256 236 189 188 194 210 213 201 181 175 177 171 176 174 161 163 156 162 172 184 198 216 181 151 145 164 171 174 132 291 280 270 263 272 269 264 264 258 259 257
265 259 258 255 248 241 242 262 268 263 238 220 236 226 209 194 209 187 175 176 177 175 166 168 178 161 161 166 179 211 204 128 145 173 154 112 75 31 329 291 292 321 296 273 261 252 255 257 261
247 245 251 253 241 232 242 266 272 255 259 250 248 248 220 183 201 181 166 173 177 154 148 151 143 136 142 144 162 219 106 103 187 155 95 87 51 356 322 315 306 312 296 291 300 320 308 293 282
285 263 245 245 227 199 254 272 276 275 276 267 261 249 217 176 186 174 137 156 139 115 118 127 123 117 129 144 163 179 142 170 185 118 103 93 46 10 22 312 334 344 313 310 328 328 313 293 276
313 311 311 312 56 322 277 283 287 281 266 271 288 333 37 65 30 64 57 51 72 86 96 116 118 117 131 147 170 168 160 186 150 130 109 101 77 27 335 295 335 312 306 333 320 311 309 302 293
284 290 292 301 315 292 279 276 275 271 258 262 307 43 62 62 35 40 48 49 60 65 63 79 89 114 130 115 113 93 93 224 230 90 129 153 159 92 289 14 329 320 333 302 289 307 304 302 305
300 313 315 315 310 287 274 267 259 255 243 103 54 50 51 52 55 47 46 44 50 63 72 79 83 92 72 97 181 178 100 299 258 223 186 154 145 208 249 282 282 303 296 302 335 303 295 305 309
307 325 312 298 287 278 277 279 269 190 133 87 67 59 55 51 42 45 51 47 38 39 39 41 90 87 63 34 300 295 265 260 255 221 202 150 191 215 214 227 247 266 285 296 291 329 335 306 296
303 305 290 283 279 277 277 276 246 124 119 80 66 68 67 65 58 47 51 51 45 39 35 21 36 41 25 349 314 310 293 289 289 287 238 178 231 217 208 211 216 240 260 273 291 295 285 285 286
304 298 287 285 291 299 323 323 257 153 139 127 104 83 75 73 70 61 56 52 48 43 37 32 29 32 24 11 349 329 308 302 304 310 307 284 259 236 214 205 196 222 251 273 281 280 280 276 278
310 300 299 300 284 238 242 273 259 130 115 112 103 88 79 75 72 67 60 53 50 44 37 36 30 27 25 23 14 5 352 328 310 305 297 290 285 280 260 232 193 234 259 267 267 269 271 274 274
309 299 300 307 307 284 201 215 137 88 81 86 90 86 76 74 72 69 64 57 48 44 37 34 31 25 18 17 9 11 8 355 343 338 323 312 308 309 325 324 275 255 259 268 271 276 275 275 277
301 314 321 313 306 309 286 115 92 73 55 54 74 77 63 51 48 49 46 39 34 29 31 24 21 11 4 360 348 353 4 350 345 338 330 327 325 314 321 317 298 280 270 267 270 271 275 280 281
274 305 316 319 318 316 317 42 146 142 148 132 43 42 34 19 13 12 7 4 1 353 356 1 354 346 335 332 334 335 343 333 333 327 326 329 329 325 317 307 299 287 275 267 265 270 271 278 285
304 304 317 314 314 315 313 2 78 104 96 76 59 38 17 357 351 345 339 338 332 327 333 342 336 326 319 317 317 315 311 315 314 308 309 316 315 313 309 304 296 287 277 268 262 264 271 278 285
313 309 311 309 308 305 307 37 50 64 51 32 11 356 346 336 328 324 322 321 319 319 319 318 313 306 302 300 296 292 292 294 293 293 299 301 300 300 298 300 296 286 279 274 267 263 268 275 288
Height
1484 1483 1484 1487 1483 1475 1466 1459 1455 1458 1459 1461 1461 1459 1465 1472 1478 1491 1494 1495 1497 1500 1504 1507 1510 1513 1516 1518 1521 1523 1525 1527 1529 1530 1531 1533 1534 1536 1537 1538 1540 1541 1542 1542 1543 1544 1545 1546 1547
1483 1485 1489 1487 1481 1481 1472 1459 1461 1462 1462 1461 1462 1463 1470 1477 1483 1489 1493 1497 1498 1500 1504 1507 1510 1513 1516 1519 1521 1524 1526 1528 1530 1531 1533 1534 1536 1537 1538 1540 1541 1542 1543 1543 1544 1545 1546 1547 1547
1484 1486 1488 1478 1478 1479 1471 1460 1459 1459 1462 1463 1466 1470 1476 1483 1487 1491 1495 1498 1499 1501 1504 1507 1510 1513 1516 1519 1522 1524 1526 1528 1530 1532 1534 1535 1537 1538 1539 1540 1541 1542 1543 1544 1544 1545 1546 1547 1547
1486 1487 1484 1476 1479 1468 1461 1458 1457 1459 1461 1462 1467 1476 1482 1486 1488 1492 1496 1499 1500 1502 1505 1508 1511 1513 1516 1519 1522 1524 1526 1529 1530 1532 1534 1535 1537 1538 1539 1540 1541 1542 1543 1543 1544 1545 1545 1546 1547
1489 1484 1475 1474 1474 1462 1456 1457 1458 1461 1461 1463 1470 1479 1485 1488 1490 1493 1497 1500 1502 1504 1505 1508 1511 1513 1516 1519 1521 1524 1526 1528 1530 1532 1533 1535 1536 1537 1538 1539 1540 1541 1541 1542 1543 1543 1544 1545 1545
1487 1477 1475 1477 1476 1462 1456 1457 1459 1463 1463 1465 1471 1480 1487 1490 1492 1495 1498 1501 1503 1505 1505 1509 1511 1513 1516 1518 1521 1523 1525 1527 1529 1531 1532 1534 1535 1536 1537 1538 1538 1539 1539 1540 1541 1541 1542 1543 1543
1487 1478 1474 1467 1474 1467 1458 1456 1462 1466 1465 1465 1469 1478 1486 1490 1493 1495 1498 1501 1503 1505 1505 1508 1511 1513 1516 1518 1520 1522 1524 1526 1528 1529 1531 1532 1533 1534 1535 1536 1537 1537 1538 1538 1539 1539 1540 1540 1541
1484 1479 1472 1462 1468 1467 1456 1455 1459 1462 1466 1467 1468 1475 1484 1489 1492 1495 1498 1501 1503 1504 1505 1508 1510 1512 1515 1517 1519 1521 1523 1525 1526 1528 1529 1530 1531 1532 1533 1534 1535 1536 1536 1536 1537 1537 1537 1538 1538
1482 1481 1475 1462 1461 1461 1456 1455 1458 1463 1465 1467 1468 1470 1479 1486 1490 1494 1498 1500 1503 1504 1504 1506 1508 1510 1513 1515 1517 1520 1522 1523 1525 1526 1528 1528 1529 1530 1530 1531 1532 1533 1534 1534 1535 1535 1535 1535 1536
1477 1478 1468 1458 1457 1459 1460 1458 1458 1461 1466 1468 1472 1476 1480 1485 1488 1492 1495 1498 1501 1503 1505 1506 1507 1509 1512 1515 1516 1518 1520 1521 1523 1524 1525 1526 1527 1528 1530 1530 1530 1530 1530 1531 1531 1532 1532 1532 1532
1472 1471 1463 1459 1459 1459 1459 1457 1457 1459 1466 1471 1478 1485 1488 1488 1488 1490 1493 1495 1498 1501 1504 1506 1506 1507 1511 1515 1515 1517 1519 1520 1521 1522 1523 1524 1525 1526 1528 1528 1527 1527 1527 1527 1527 1528 1528 1528 1528
1469 1468 1465 1463 1462 1463 1461 1458 1456 1457 1463 1467 1473 1483 1490 1488 1486 1487 1490 1492 1495 1498 1501 1503 1504 1505 1509 1512 1515 1516 1518 1519 1520 1521 1522 1522 1523 1524 1525 1525 1525 1525 1525 1524 1524 1524 1524 1524 1525
1468 1468 1466 1464 1464 1464 1463 1461 1460 1459 1461 1464 1470 1479 1483 1483 1482 1483 1485 1488 1490 1494 1497 1500 1500 1502 1504 1507 1510 1514 1516 1517 1519 1519 1520 1520 1520 1521 1521 1521 1521 1521 1522 1522 1522 1521 1521 1521 1521
1471 1467 1464 1463 1463 1462 1461 1460 1460 1459 1461 1463 1467 1473 1476 1477 1478 1478 1480 1484 1485 1489 1492 1495 1495 1497 1500 1503 1506 1509 1512 1514 1516 1516 1517 1517 1518 1518 1517 1517 1517 1517 1517 1517 1516 1516 1516 1516 1516
1470 1470 1468 1464 1460 1458 1458 1459 1456 1455 1457 1461 1465 1468 1472 1472 1472 1473 1475 1478 1481 1483 1486 1489 1491 1494 1496 1499 1502 1505 1508 1511 1512 1514 1514 1515 1515 1515 1514 1514 1514 1513 1513 1512 1512 1512 1511 1510 1511
1468 1470 1471 1458 1452 1451 1458 1465 1452 1451 1453 1458 1464 1464 1467 1467 1469 1469 1471 1474 1477 1478 1481 1485 1488 1490 1493 1497 1500 1503 1506 1507 1509 1511 1513 1512 1513 1512 1512 1511 1511 1510 1509 1509 1508 1507 1507 1506 1506
1468 1471 1465 1453 1443 1445 1453 1459 1450 1450 1454 1457 1461 1463 1462 1465 1468 1468 1470 1472 1474 1475 1476 1480 1484 1485 1489 1493 1497 1500 1502 1504 1506 1509 1510 1510 1510 1510 1509 1508 1508 1507 1506 1506 1506 1505 1504 1502 1502
1465 1457 1453 1450 1441 1447 1455 1455 1449 1450 1454 1456 1458 1459 1461 1463 1467 1468 1469 1471 1473 1471 1472 1475 1480 1483 1486 1491 1494 1499 1501 1501 1504 1507 1507 1507 1507 1507 1506 1506 1505 1504 1503 1503 1502 1501 1500 1499 1498
1460 1459 1455 1447 1443 1453 1458 1457 1452 1450 1454 1454 1457 1459 1461 1465 1469 1467 1469 1470 1471 1471 1470 1470 1475 1480 1486 1490 1494 1497 1500 1500 1502 1505 1505 1505 1505 1505 1504 1503 1502 1501 1501 1500 1499 1498 1496 1495 1495
1463 1464 1460 1452 1448 1454 1459 1458 1451 1449 1451 1455 1458 1461 1463 1464 1471 1468 1471 1471 1471 1469 1473 1471 1475 1481 1486 1488 1491 1495 1498 1499 1500 1502 1502 1502 1502 1502 1502 1501 1499 1499 1498 1496 1496 1495 1493 1492 1492
1465 1466 1466 1465 1459 1456 1459 1461 1452 1448 1451 1456 1461 1466 1468 1469 1470 1473 1473 1470 1471 1474 1474 1475 1481 1486 1488 1489 1491 1494 1496 1498 1499 1499 1499 1499 1499 1499 1499 1497 1496 1495 1494 1494 1493 1492 1490 1489 1488
1472 1465 1465 1465 1469 1468 1461 1470 1455 1450 1455 1461 1467 1470 1472 1474 1476 1477 1475 1474 1476 1477 1479 1482 1484 1487 1488 1490 1493 1494 1495 1496 1497 1497 1498 1497 1496 1496 1495 1494 1493 1492 1491 1490 1490 1490 1487 1486 1484
1468 1462 1464 1465 1467 1469 1463 1469 1462 1452 1461 1467 1472 1476 1478 1479 1479 1481 1479 1478 1479 1479 1481 1484 1485 1486 1487 1489 1490 1490 1492 1494 1495 1494 1494 1493 1493 1493 1492 1491 1490 1489 1488 1487 1486 1485 1483 1481 1480
1463 1464 1463 1464 1472 1493 1490 1495 1475 1460 1463 1468 1474 1478 1481 1482 1483 1485 1484 1484 1483 1482 1482 1483 1484 1484 1485 1486 1487 1488 1488 1489 1490 1490 1490 1490 1490 1490 1489 1487 1486 1485 1484 1483 1482 1480 1479 1477 1476
1467 1474 1484 1489 1500 1510 1501 1502 1481 1463 1462 1467 1474 1480 1483 1485 1487 1488 1488 1488 1487 1486 1486 1484 1483 1483 1484 1484 1484 1484 1484 1485 1485 1485 1485 1485 1486 1486 1486 1484 1482 1481 1480 1479 1478 1476 1474 1473 1471
1468 1471 1487 1495 1491 1484 1489 1488 1476 1468 1472 1476 1479 1482 1485 1487 1489 1490 1491 1491 1490 1490 1488 1486 1485 1484 1484 1483 1482 1482 1481 1481 1480 1480 1480 1480 1480 1480 1480 1479 1478 1477 1476 1475 1474 1472 1470 1468 1466
1469 1469 1463 1471 1470 1472 1467 1472 1478 1478 1484 1484 1484 1484 1487 1489 1490 1491 1491 1491 1491 1490 1488 1487 1485 1484 1483 1482 1481 1480 1478 1478 1476 1476 1475 1475 1474 1474 1473 1472 1472 1471 1471 1470 1469 1467 1465 1463 1461
1461 1463 1469 1478 1489 1489 1472 1476 1489 1488 1489 1487 1488 1488 1490 1491 1491 1492 1491 1491 1490 1489 1487 1485 1484 1482 1481 1479 1478 1476 1474 1473 1472 1471 1470 1469 1468 1467 1466 1466 1465 1465 1465 1464 1464 1462 1461 1458 1456
1467 1466 1468 1473 1478 1491 1493 1493 1482 1489 1491 1490 1490 1492 1493 1493 1493 1493 1492 1490 1489 1487 1486 1484 1482 1480 1478 1476 1473 1471 1469 1468 1466 1465 1464 1462 1461 1460 1459 1459 1458 1458 1458 1458 1457 1456 1455 1453 1451
1466 1466 1469 1484 1485 1479 1486 1500 1486 1489 1491 1492 1493 1494 1494 1494 1493 1492 1490 1488 1486 1484 1482 1481 1478 1476 1474 1471 1469 1466 1464 1462 1460 1459 1457 1456 1454 1453 1452 1451 1450 1450 1450 1451 1450 1450 1449 1448 1446